KUIPER-00218

Last updated on Sun Mar 15 2026 00:02:06 GMT+0000 (Coordinated Universal Time)

1 67780U 26030S 26073.58749516 -.02284470 00000+0 -78362-1 0 9997 2 67780 51.8823 195.6523 0017052 90.5299 269.7640 15.33057267 5847
UTC large
Height (km)
Speed (km/s)
/
Latitude / Longitude
Inclination (degrees)
Orbital Period (minutes)
Azimuth
Elevation
Range (km)
Doppler Factor

Next 0 passes for location: London (51.5072 / 0.1276)

Sorry there are no passes over London.